This is the latest recevied weather packets stored in our database for station/object EA3HRE-13. If no packets are shown the sender has not sent any weather packets the latest 1 day(s).
| Time | Temp. | Humidity | Pressure | Rain* | Wind** | Luminosity | Snow |
|---|---|---|---|---|---|---|---|
| 1778069978 | 21.11° C | 100% | 1002.3 hPa | 0 mm | - | - | - |
| 1778069378 | 21.11° C | 100% | 1002.5 hPa | 0 mm | - | - | - |
| 1778068778 | 19.44° C | 100% | 1002.5 hPa | 0 mm | - | - | - |
| 1778068148 | 21.11° C | 100% | 1155.5 hPa | 0 mm | - | - | - |
| 1778067548 | 20.56° C | 100% | 1002.6 hPa | 0 mm | - | - | - |
| 1778065117 | 20° C | 100% | 1002.8 hPa | 0 mm | - | - | - |
| 1778062687 | 19.44° C | 100% | 1003 hPa | 0 mm | - | - | - |
| 1778062087 | 19.44° C | 100% | 1003 hPa | 0 mm | - | - | - |
| 1778061487 | 19.44° C | 100% | 1003.1 hPa | 0 mm | - | - | - |
| 1778060887 | 18.89° C | 100% | 1003.3 hPa | 0 mm | - | - | - |
| 1778057886 | 17.78° C | 100% | 1003.2 hPa | 0 mm | - | - | - |
| 1778057286 | 17.78° C | 100% | 1003.1 hPa | 0 mm | - | - | - |
| 1778056686 | 17.22° C | 100% | 1003.3 hPa | 0 mm | - | - | - |
| 1778056086 | 17.22° C | 100% | 1003.1 hPa | 0 mm | - | - | - |
| 1778055456 | 16.67° C | 100% | 1003.2 hPa | 0 mm | - | - | - |
| 1778054856 | 16.67° C | 100% | 1003.2 hPa | 0 mm | - | - | - |
| 1778052425 | 15.56° C | 100% | 1109.4 hPa | 0 mm | - | - | - |
| 1778051195 | 15° C | 100% | 1003.1 hPa | 0 mm | - | - | - |
| 1778050595 | 15° C | 100% | 1003.1 hPa | 0 mm | - | - | - |
| 1778048791 | 13.89° C | 100% | 1002.8 hPa | 0 mm | - | - | - |
| 1778048191 | 13.89° C | 100% | 1002.8 hPa | 0 mm | - | - | - |
| 1778047591 | 13.89° C | 100% | 1002.6 hPa | 0 mm | - | - | - |
| 1778046961 | 13.89° C | 100% | 1002.6 hPa | 0 mm | - | - | - |
| 1778042700 | 12.78° C | 100% | 1002.3 hPa | 0 mm | - | - | - |
| 1778042100 | 13.33° C | 100% | 1002.1 hPa | 0 mm | - | - | - |
* Rain latest hour (hover to see other rain measurements)
** Current wind speed in m/s (hover to see current wind gust speed)